Погода в Чинча-Альта

Перу     13°25′31″S   76°08′03″W
темп.,
°C
ветер,
м/с
пор.,
м/с
влажн.,
%
обл.,
%
осадки,
мм/ч
давл.,
гПа
погр.,
м
21 июня, пн
пн2101:00+17с1183100 0.0 1016145
04:00+17ссв228418 0.0 1015216
07:00+17св2284100 0.0 1015220
10:00+18з008098 0.0 1016251
13:00+17зюз438429 0.0 1014311
16:00+18юз348241 0.0 1012263
19:00+17с228542 0.0 1014156
22:00+17ссз448676 0.0 1015235
22 июня, вт
вт2201:00+17ссз568780 0.0 1014356
04:00+17с5686100 0.0 1014474
07:00+17ссз568393 0.0 1016608
10:00+18сз4582100 0.0 1017498
13:00+18з448248 0.0 1016357
16:00+18юз44845 0.0 1015299
19:00+17ююз448425 0.0 1016270
22:00+17ю338346 0.0 1017304
23 июня, ср
ср2301:00+17ююв018315 0.0 1016134
04:00+16ю11844 0.0 1015139
07:00+16вюв11844 0.0 1016179
10:00+17ю01805 0.0 1017270
13:00+18юз548078 0.0 1016307
16:00+18юз448126 0.0 1014211
19:00+17св12837 0.0 1015168
22:00+17ссз448499 0.0 1015207
24 июня, чт
чт2401:00+17с33865 0.0 1014252
04:00+17сз22879 0.0 1013269
07:00+17с128789 0.0 1015243
10:00+18з228183 0.1 1016287
13:00+18з328061 0.1 1015403
16:00+18зюз33813 0.0 1014336
19:00+17зсз12832 0.0 1015228
22:00+17с33855 0.0 1016214
25 июня, пт
пт2501:00+17ссв34855 0.0 1015296
04:00+17св228529 0.0 1015216
07:00+17вюв118618 0.0 1016146
10:00+17зюз118380 0.0 1017267
13:00+17зюз338359 0.1 1016270
16:00+17ююз33805 0.0 1013249
19:00+17юз33835 0.0 1015189
22:00+17св11845 0.0 1016209